Back to catalog

FENGYUN 1C DEB

LostPO
NORAD 31643·DEBRIS·🇨🇳 China

Launched May 10, 1999 from Taiyuan Satellite Launch Center

Loading…

Next Passes (next 24 hours)

TLE

StaleSource: Space-Track

Epoch: Sep 29, 2024, 19:57 UTC

1 31643U 99025CAZ 24273.83177292  .00005668  00000-0  34750-2 0  9995
2 31643  98.3594 126.8056 0098363 103.9432 319.1130 14.03696979508023

Track FENGYUN 1C DEB in real time with AllMySat

Download on the App Store